{"data":{"norad_id":67902,"epoch":"2026-09-19T13:44:40.201728Z","epoch_age_seconds":143271,"freshness":"FRESH","line1":"1 67902U 26035Z   26262.57268752  .00021727  00000+0  67340-3 0  9991","line2":"2 67902  97.2855 194.4800 0001678  92.9174 267.2260 15.33443914 33707","mean_motion":15.33443914,"eccentricity":0.0001678,"inclination_deg":97.2855,"raan_deg":194.48,"arg_perigee_deg":92.9174,"mean_anomaly_deg":267.226,"bstar":0.0006734,"rev_number":3370,"period_min":93.906271162129,"perigee_km":464.3980355765,"apogee_km":466.69477572744,"semimajor_km":6843.683405652,"source":"CELESTRAK","updated_at":"2026-09-20T09:00:43.700360Z"}}